Home > Time Zones > World Clock > Weather > U.S.A. > Erie > Past weeks

Flag Weather past 2 weeks in Erie, Pennsylvania, U.S.A.

Now
34 °F

Overcast.


Feels Like: 30 °F
Forecast: 33 / 36 °F
Wind: 5 mph from South

Location: Erie International Airport

Current Time: Nov 26, 2014 at 5:16:56 AM

Latest Report: Nov 26, 2014 at 3:51 AM


Visibility: 10 mi

Pressure: 30.21 "Hg

Humidity: 70%

Dew point: 25 °F

Location of ErieLocation

Historic Weather in Erie — Graph

°F

Erie temperature yesterday

Maximum temperature yesterday: 43 °F (at 12:51 AM)
Minimum temperature yesterday: 35 °F (at 8:51 PM)
Average temperature yesterday: 38 °F

Past Weeks' High & Low Weather Summary

 TemperatureHumidityPressure
High69 °F (Nov 11, 2:51 PM)92% (Nov 13, 10:00 AM)30.51 "Hg (Nov 13, 10:00 AM)
Low12 °F (Nov 19, 6:51 AM)33% (Nov 11, 7:51 PM)29.23 "Hg (Nov 24, 12:51 PM)
Average35 °F65%30.01 "Hg
* Reported Nov 11 3:51 AM — Nov 26 3:51 AM, Erie, Weather by CustomWeather, © 2014

Note: Actual official high and low records may vary slightly from our data, if they occured in-between our weather recording intervals... More about our weather records

Advertising

Erie weather history for previous 24 hours

 ConditionsComfort  
Time TempWeatherWind HumidityBarometerVisibility
3:51 AM
Nov 26
34 °FOvercast.5 mph70%30.21 "Hg10 mi
2:51 AM34 °FOvercast.5 mph70%30.20 "Hg10 mi
1:51 AM35 °FOvercast.3 mph64%30.20 "Hg10 mi
12:51 AM35 °FOvercast.5 mph64%30.20 "Hg10 mi
11:51 PM
Nov 25
35 °FOvercast.6 mph64%30.22 "Hg10 mi
10:51 PM35 °FOvercast.6 mph64%30.23 "Hg10 mi
9:51 PM35 °FOvercast.6 mph64%30.22 "Hg10 mi
8:51 PM35 °FOvercast.9 mph64%30.21 "Hg10 mi
7:51 PM36 °FOvercast.9 mph67%30.18 "Hg10 mi
6:51 PM36 °FLight rain. Overcast.9 mph73%30.16 "Hg10 mi
5:51 PM36 °FLight rain. Mostly cloudy.10 mph70%30.13 "Hg10 mi
4:51 PM37 °FOvercast.13 mph60%30.10 "Hg10 mi
3:51 PM38 °FOvercast.12 mph58%30.07 "Hg10 mi
2:51 PM38 °FMostly cloudy.16 mph60%30.06 "Hg10 mi
1:51 PM39 °FOvercast.14 mph65%30.02 "Hg10 mi
12:51 PM39 °FOvercast.14 mph62%30.01 "Hg10 mi
11:51 AM40 °FOvercast.10 mph58%29.99 "Hg10 mi
10:51 AM40 °FOvercast.14 mph53%29.99 "Hg10 mi
9:51 AM39 °FOvercast.14 mph60%29.96 "Hg10 mi
8:51 AM39 °FOvercast.15 mph57%29.95 "Hg10 mi
7:51 AM38 °FOvercast.13 mph60%29.93 "Hg10 mi
6:51 AM39 °FOvercast.15 mph57%29.90 "Hg10 mi
5:51 AM38 °FOvercast.18 mph60%29.87 "Hg10 mi
Weather by CustomWeather, © 2014

See weather overviewHow to use our weather pages